Location: Syracuse
(43.0480°N, 76.1480°W)
Time: 10:53:26
(UTC-04:00)

Daily predictions for brighter satellites

Satellite Brightness Start Highest point End
(mag) Time Altitude Azimuth Time Altitude Azimuth Time Altitude Azimuth
NOSS 3-3 (A) 4.4 20:11:37 10° S 20:17:04 38° ESE 20:22:59 10° NE
NOSS 3-3 (C) 4.4 20:11:44 10° S 20:17:11 38° ESE 20:23:04 10° NE
Cosmos 2333 4.3 20:11:47 10° S 20:17:15 53° ESE 20:22:43 10° NNE
Cosmos 1844 Rocket 2.8 20:11:43 10° NNW 20:17:22 62° ENE 20:22:58 10° SE
Cosmos 2263 Rocket 4.3 20:14:38 10° NW 20:19:25 28° WSW 20:24:10 10° SSW
Cosmos 1844 4.0 20:15:07 10° NNW 20:20:41 52° ENE 20:26:16 10° SE
Cosmos 2221 2.9 20:17:10 10° SSW 20:21:24 68° W 20:25:40 10° N
Cosmos 1455 3.4 20:19:57 10° SE 20:23:03 24° E 20:26:12 10° NE
Cosmos 44 3.9 20:21:01 10° SW 20:25:25 58° NW 20:30:08 10° NNE
Cosmos 494 Rocket 4.3 20:20:33 10° NNW 20:25:45 71° WSW 20:30:57 10° S
ERS-2 2.1 20:22:24 10° SSE 20:26:01 67° ENE 20:29:41 10° N
NOSS 7 (H) 4.5 20:23:36 10° SW 20:27:09 84° NW 20:30:28 10° NE
Cosmos 2219 Rocket 2.5 20:23:11 10° S 20:28:30 44° ESE 20:33:49 10° NE
Cosmos 1892 3.2 20:24:53 10° N 20:28:37 43° ENE 20:32:19 10° SSE
Cosmos 2237 Rocket 3.3 20:25:04 10° SSE 20:29:12 22° E 20:33:21 10° NE
H-2A R/B 3.9 20:28:27 10° E 20:30:39 13° ENE 20:32:50 10° NNE
Cosmos 2154 Rocket 4.1 20:25:26 10° S 20:31:34 61° E 20:37:42 10° NNE
Cosmos 1805 Rocket 3.6 20:29:43 10° N 20:34:06 83° W 20:38:25 10° S
Cosmos 2184 Rocket 4.3 20:29:00 10° SSW 20:35:09 73° W 20:41:20 10° N
Cosmos 2278 Rocket 3.1 20:31:51 10° N 20:36:57 33° NE 20:41:43 11° ESE
CZ-3B R/B 4.1 20:36:11 10° N 20:37:01 13° NNE 20:37:51 10° ENE
Cosmos 1328 Rocket 4.1 20:37:08 10° SSE 20:41:13 38° E 20:45:20 10° NNE
Genesis I 4.1 20:38:26 10° NNW 20:42:16 37° NE 20:45:30 13° ESE
YAOGAN 6 2.5 20:39:30 10° SSE 20:43:04 72° ENE 20:46:43 10° N
Cosmos 2251 Rocket 3.6 20:38:07 10° NNW 20:43:33 88° WSW 20:48:54 10° SSE
Resurs 01 Rocket 1.7 20:39:55 10° SSE 20:44:18 62° ENE 20:48:41 10° N
Meteor 2-15 4.5 20:38:15 10° N 20:44:26 89° E 20:50:32 10° S
Cosmos 44 Rocket 4.1 20:43:47 10° SW 20:48:26 55° NW 20:53:18 10° NNE
Envisat 3.6 20:43:36 10° S 20:48:36 59° W 20:53:39 10° NNW
Cosmos 1470 Rocket 4.1 20:47:45 10° N 20:51:54 39° ENE 20:55:28 13° SE
Cosmos 2341 Rocket 4.1 20:47:05 10° S 20:53:19 61° E 20:59:33 10° NNE
ATLAS CENTAUR R/B 1.4 20:52:12 10° S 20:55:41 43° ESE 20:59:18 10° NE
Cosmos 1340 3.4 20:53:54 10° SSW 20:57:37 58° WNW 21:01:23 10° N
Cosmos 962 Rocket 4.4 20:52:29 10° S 20:58:33 69° E 21:04:41 10° NNE
Cosmos 2098 Rocket 4.3 20:58:56 16° SE 21:01:09 23° E 21:04:20 10° NE
Aureole 2 4.3 21:02:17 10° S 21:05:13 44° ESE 21:08:03 10° NNE
NOSS 0 Rocket 4.0 21:01:35 10° S 21:07:35 57° ESE 21:13:39 10° NNE
Cosmos 1295 Rocket 4.5 21:01:55 10° S 21:08:14 77° E 21:14:33 10° N
Cosmos 1825 2.8 21:06:25 10° N 21:09:59 37° ENE 21:11:38 24° SE
Thor Agena Rocket 4.2 21:07:33 10° N 21:12:42 59° WNW 21:17:52 10° SSW
Cosmos 2366 rocket 4.4 21:07:02 10° SSE 21:12:48 42° E 21:18:38 10° NNE
BREEZE-M DEB (TANK) 3.8 21:10:47 10° W 21:13:15 27° NNW 21:15:13 10° NE
SJ-11-01 4.5 21:13:44 10° S 21:18:22 71° WSW 21:23:03 10° NNW
SL-16 R/B 3.3 21:17:50 22° ESE 21:18:33 22° E 21:22:48 10° NE
Cosmos 1939 Rocket 3.9 21:15:55 10° S 21:19:35 42° W 21:23:20 10° NNW
Resurs 1-3 4.3 21:15:58 10° S 21:20:14 52° W 21:24:33 10° NNW
Cosmos 1933 Rocket 3.5 21:16:17 10° N 21:20:40 66° E 21:23:24 22° SSE
USA 186 3.8 21:19:07 10° SW 21:20:40 17° W 21:22:16 10° NW
Meteor 2-3 Rocket 3.9 21:15:38 10° NNW 21:21:14 75° W 21:26:50 10° S
SL-8 Rocket 4.0 21:16:11 10° S 21:22:25 67° E 21:28:39 10° NNE
GEOS 3 Rocket 4.3 21:21:13 10° NE 21:25:54 31° ESE 21:30:30 10° S
Cosmos 220 Rocket 4.3 21:22:40 10° NNW 21:27:00 66° WSW 21:29:56 19° S
Terra 3.9 21:26:13 11° ENE 21:27:09 11° ENE 21:28:40 10° NE
ARGOS 3.3 21:25:40 25° SE 21:28:38 53° ENE 21:33:51 10° N
Cosmos 1869 3.5 21:27:19 29° SSE 21:28:59 49° E 21:32:53 10° NNE
Cosmos 1151 Rocket 2.9 21:25:17 10° S 21:29:32 86° E 21:33:50 10° N
ATLAS 2AS CENTAUR R/B 3.0 21:22:03 10° NW 21:29:59 78° WSW 21:35:15 21° SSE
Spot 2 Rocket 4.0 21:26:32 10° S 21:31:34 61° WSW 21:36:37 10° NNW
MetOp-B 4.4 21:30:49 27° SE 21:33:28 52° ENE 21:38:39 10° N
Lacrosse 5 4.2 21:34:39 10° NNW 21:38:03 18° N 21:41:27 10° NE
BREEZE-M DEB (TANK) 4.0 21:32:33 10° W 21:38:56 34° NNW 21:41:03 15° NE
SPOT 5 3.8 21:40:05 26° E 21:40:49 28° ENE 21:44:37 10° N
Cosmos 1869 Rocket 4.2 21:38:45 10° N 21:42:47 35° ENE 21:43:13 34° E
Cosmos 1980 3.7 21:39:22 10° SSW 21:45:03 85° WNW 21:50:47 10° NNE
Helios 1B rocket 4.3 21:41:57 10° NE 21:43:24 16° ENE 21:43:24 16° ENE
Cosmos 2297 4.2 21:42:48 10° NNW 21:48:17 46° ENE 21:50:11 34° ESE
Meteor 2-10 Rocket 3.7 21:46:07 23° S 21:49:40 65° E 21:55:27 10° NNE
Cosmos 2333 Rocket 3.2 21:48:18 10° SW 21:53:45 47° WNW 21:59:13 10° NNE
Cosmos 864 Rocket 4.4 21:49:04 14° S 21:54:23 84° E 22:00:33 10° N
Cosmos 2369 Rocket 4.2 21:53:20 10° N 21:56:22 14° NE 21:58:28 12° ENE
Cosmos 1441 Rocket 4.2 21:59:48 32° NE 21:59:48 32° NE 22:02:12 10° NNE
Cosmos 2228 Rocket 4.2 21:54:27 10° SSW 21:58:39 43° WNW 22:02:52 10° N
Helios 1A 3.2 21:59:12 48° E 21:59:24 49° ENE 22:03:28 10° N
Cosmos 1408 3.8 21:56:48 10° NNW 22:00:15 40° W 22:01:43 27° SW
NOSS 3-4 (A) 4.0 21:53:23 10° NNW 22:00:21 64° NE 22:03:34 36° ESE
NOSS 3-4 (C) 4.0 21:53:29 10° NNW 22:00:27 63° NE 22:03:39 35° ESE
SPOT 1/Viking Rocket 4.0 22:00:11 39° E 22:01:08 44° ENE 22:06:05 10° N
USA 81 4.0 21:55:51 10° N 22:01:09 69° E 22:02:39 46° SSE
H-2A R/B 1.9 22:07:50 46° S 22:09:23 86° WSW 22:14:24 10° NNW
Cosmos 407 Rocket 3.3 22:04:57 10° NNW 22:10:07 79° ENE 22:11:08 57° SE
SL-8 R/B 3.6 22:06:09 10° WSW 22:10:57 89° NW 22:12:51 37° ENE
ERS-1 Rocket 2.9 22:10:13 51° SSE 22:11:32 89° WSW 22:16:36 10° NNW
USA 267 3.3 22:05:25 10° ENE 22:11:47 52° SE 22:18:06 10° SSW
Cosmos 2219 Rocket 4.1 22:07:39 10° WSW 22:12:35 30° NW 22:17:33 10° N
Cosmos 2237 Rocket 2.8 22:07:17 10° SW 22:12:47 56° WNW 22:18:20 10° NNE
Cosmos 1862 3.3 22:10:16 10° N 22:14:04 71° NE 22:14:04 71° NE
Cosmos 614 Rocket 4.4 22:09:26 10° N 22:14:28 46° ENE 22:14:58 45° E
MetOp-A 4.5 22:12:25 32° S 22:14:47 61° WSW 22:20:07 10° NNW
Cosmos 1371 Rocket 4.4 22:13:04 10° SSW 22:18:20 66° WNW 22:23:41 10° NNE
Cosmos 2278 Rocket 3.2 22:15:50 10° NW 22:21:05 40° WSW 22:23:35 26° SSW
Resurs 01 Rocket 4.4 22:19:07 10° WSW 22:21:10 13° W 22:23:14 10° WNW
SL-08 RB Rocket 4.1 22:24:45 48° SW 22:25:33 55° W 22:29:58 10° NNW
Cosmos 405 Rocket 3.4 22:28:05 49° N 22:28:05 49° N 22:31:02 10° N
Cosmos 1000 Rocket 4.4 22:22:14 10° N 22:28:25 65° E 22:29:25 57° SE
ATLAS 5 CENTAUR R/B 4.0 22:24:13 10° NNW 22:28:43 23° NE 22:31:07 18° ENE
Cosmos 1727 Rocket 4.3 22:22:49 10° NNW 22:28:55 63° W 22:31:34 34° SSW
Cosmos 676 Rocket 3.9 22:23:45 10° NNW 22:29:01 72° ENE 22:29:20 70° E
Cosmos 1821 Rocket 4.0 22:33:03 58° SE 22:33:52 63° E 22:40:06 10° NNE
ATLAS CENTAUR R/B 3.9 22:32:08 10° W 22:34:51 19° NW 22:37:43 10° N
Cosmos 2056 Rocket 4.2 22:35:44 16° SW 22:40:00 54° WNW 22:45:19 10° NNE
Cosmos 1452 Rocket 3.9 22:42:01 50° NE 22:42:01 50° NE 22:46:07 10° NNE
Cosmos 1023 Rocket 4.4 22:40:13 10° NNW 22:45:14 82° NNE 22:45:14 82° NNE
USA 234 4.0 22:43:06 30° ENE 22:45:52 45° NNE 22:52:00 10° NW
Landsat 7 3.9 22:46:49 75° N 22:46:49 75° N 22:51:12 10° NNW
Cosmos 2123 Rocket 4.1 22:43:38 10° N 22:49:51 55° ENE 22:49:58 55° E
SL-16 R/B 2.8 22:59:33 30° SW 23:02:13 55° WNW 23:07:48 10° NNE
Cosmos 2344 3.4 22:58:41 33° SSW 23:02:34 82° ESE 23:10:58 10° NE
GEOS 3 Rocket 4.4 22:58:53 10° NNE 23:04:05 51° NW 23:09:10 10° WSW
Terra 2.3 23:05:06 58° NNW 23:05:06 58° NNW 23:08:56 10° NNW
Cosmos 1535 Rocket 4.4 23:04:33 80° S 23:04:57 89° E 23:11:23 10° N
Cosmos 1140 Rocket 3.8 23:02:09 10° NNW 23:06:46 59° WNW 23:06:46 59° WNW
CZ-4C R/B 3.4 23:13:19 31° NE 23:13:19 31° NE 23:16:30 10° NE
Cosmos 1241 Rocket 4.4 23:06:28 10° NNW 23:12:48 79° ENE 23:12:48 79° ENE
CZ-2C R/B 3.7 23:14:25 45° N 23:14:25 45° N 23:17:51 10° N
Cosmos 1943 Rocket 3.3 23:08:46 10° N 23:13:21 33° NE 23:13:21 33° NE
SPOT 5 4.2 23:19:19 30° W 23:19:19 30° W 23:22:49 10° NW
Meteor 1-14 Rocket 4.4 23:13:17 10° N 23:18:03 67° N 23:18:03 67° N
Helios 1B rocket 4.1 23:16:43 10° N 23:19:46 31° NW 23:19:46 31° NW
Lacrosse 5 3.0 23:17:35 10° NW 23:21:58 37° NNE 23:21:58 37° NNE
Cosmos 1605 Rocket 4.1 23:24:41 69° NE 23:24:41 69° NE 23:30:27 10° N
Cosmos 1603 4.4 23:30:41 47° NNE 23:30:41 47° NNE 23:34:36 10° NNE
Cosmos 2369 Rocket 2.7 23:35:43 10° NNW 23:40:15 56° N 23:40:15 56° N
Mayak 1.7 23:47:26 10° NE 23:47:28 10° NE 23:47:28 10° NE
